Warroad, MN

7:11 PM CST on February 10, 2016 (GMT -0600)
Warroad International-Carlson

Weather History for KRRT - February, 2014

Change the Weather History Date:

Monday, February 10, 2014

  Actual Average (WUND) Record (WUND)
Temperature  
Mean Temperature -11 °F -  
Max Temperature 0 °F - - (-1)
Min Temperature -22 °F - - (-1)
Degree Days  
Heating Degree Days 76    
Moisture  
Dew Point -19 °F    
Average Humidity 70    
Maximum Humidity 77    
Minimum Humidity 60    
Precipitation  
Precipitation 0.00 in - - ()
Sea Level Pressure  
Sea Level Pressure 30.37 in    
Wind  
Wind Speed 5 mph (WSW)    
Max Wind Speed 8 mph    
Max Gust Speed -    
Visibility 10 miles    
Events      
Averages and records for this station are not official NWS values.
T = Trace of Precipitation, MM = Missing Value Source: NWS Daily Summary

Daily Weather History Graph

Daily Weather History Graph

Search for Another Location

Airport or City:

Trip Planner

Search our weather history database for the weather conditions in past years. The results will help you decide how hot, cold, wet, or windy it might be!

Date:

Astronomy

Feb. 10, 2014 Rise Set
Actual Time 7:38 AM CST 5:33 PM CST
Civil Twilight 7:04 AM CST 6:07 PM CST
Nautical Twilight 6:27 AM CST 6:44 PM CST
Astronomical Twilight 5:51 AM CST 7:21 PM CST
Moon 1:55 PM CST (2/10) 4:40 AM CST (2/10)
Length of Visible Light 11h 02m
Length of Day
9h 55m
Waxing Gibbous, 85% of the Moon is Illuminated
Feb 10
Waxing Gibbous
Feb 14
Full
Feb 22
Last Quarter
Mar 1
New
Mar 8
First Quarter

Hourly Weather History & Observations

Time (CST) Temp. Windchill Dew Point Humidity Pressure Visibility Wind Dir Wind Speed Gust Speed Precip Events Conditions
12:01 AM -18.4 °F -33.4 °F -23.8 °F 76% 30.34 in 10.0 mi SW 5.8 mph - N/A   Clear
12:21 AM -18.4 °F -31.4 °F -23.8 °F 76% 30.34 in 10.0 mi SW 4.6 mph - N/A   Clear
12:41 AM -18.4 °F -28.9 °F -23.8 °F 76% 30.34 in 10.0 mi SW 3.5 mph - N/A   Clear
1:01 AM -18.4 °F -31.4 °F -23.8 °F 76% 30.34 in 10.0 mi WSW 4.6 mph - N/A   Clear
1:21 AM -18.4 °F -36.6 °F -23.8 °F 76% 30.34 in 10.0 mi WSW 8.1 mph - N/A   Clear
1:41 AM -18.4 °F -33.4 °F -23.8 °F 76% 30.34 in 10.0 mi West 5.8 mph - N/A   Clear
2:01 AM -18.4 °F -33.4 °F -23.8 °F 76% 30.34 in 10.0 mi WSW 5.8 mph - N/A   Clear
2:21 AM -18.4 °F -33.4 °F -23.8 °F 76% 30.34 in 10.0 mi WSW 5.8 mph - N/A   Clear
2:41 AM -18.4 °F -33.4 °F -23.8 °F 76% 30.34 in 10.0 mi West 5.8 mph - N/A   Clear
3:21 AM -16.6 °F -32.9 °F -23.8 °F 70% 30.35 in 10.0 mi West 6.9 mph - N/A   Clear
3:41 AM -18.4 °F -35.1 °F -23.8 °F 76% 30.35 in 10.0 mi West 6.9 mph - N/A   Clear
4:01 AM -18.4 °F -33.4 °F -23.8 °F 76% 30.35 in 10.0 mi West 5.8 mph - N/A   Clear
4:21 AM -18.4 °F -31.4 °F -25.6 °F 70% 30.35 in 10.0 mi West 4.6 mph - N/A   Clear
4:41 AM -18.4 °F -31.4 °F -25.6 °F 70% 30.35 in 10.0 mi West 4.6 mph - N/A   Clear
5:01 AM -18.4 °F -28.9 °F -25.6 °F 70% 30.35 in 10.0 mi WSW 3.5 mph - N/A   Clear
5:21 AM -18.4 °F -31.4 °F -25.6 °F 70% 30.37 in 10.0 mi WSW 4.6 mph - N/A   Clear
5:41 AM -20.2 °F -33.5 °F -27.4 °F 69% 30.37 in 10.0 mi West 4.6 mph - N/A   Clear
6:01 AM -20.2 °F -30.9 °F -27.4 °F 69% 30.37 in 10.0 mi West 3.5 mph - N/A   Clear
6:21 AM -20.2 °F -35.5 °F -27.4 °F 69% 30.38 in 10.0 mi WSW 5.8 mph - N/A   Clear
6:41 AM -20.2 °F -35.5 °F -27.4 °F 69% 30.38 in 10.0 mi West 5.8 mph - N/A   Clear
7:01 AM -20.2 °F -33.5 °F -27.4 °F 69% 30.38 in 10.0 mi West 4.6 mph - N/A   Clear
7:21 AM -20.2 °F - -25.6 °F 76% 30.38 in 10.0 mi West 1.2 mph - N/A   Clear
7:41 AM -20.2 °F - -27.4 °F 69% 30.38 in 10.0 mi WNW 2.3 mph - N/A   Clear
8:01 AM -22.0 °F -33.0 °F -29.2 °F 69% 30.39 in 10.0 mi WSW 3.5 mph - N/A   Clear
8:21 AM -20.2 °F -35.5 °F -25.6 °F 76% 30.40 in 10.0 mi WSW 5.8 mph - N/A   Clear
8:41 AM -18.4 °F -28.9 °F -25.6 °F 70% 30.39 in 10.0 mi West 3.5 mph - N/A   Clear
9:01 AM -18.4 °F -28.9 °F -25.6 °F 70% 30.40 in 10.0 mi SW 3.5 mph - N/A   Clear
9:21 AM -16.6 °F - -22.0 °F 76% 30.40 in 10.0 mi WSW 2.3 mph - N/A   Clear
9:41 AM -14.8 °F -30.8 °F -20.2 °F 77% 30.40 in 10.0 mi West 6.9 mph - N/A   Clear
10:01 AM -13.0 °F -22.7 °F -18.4 °F 77% 30.41 in 10.0 mi West 3.5 mph - N/A   Clear
10:21 AM -11.2 °F -23.0 °F -18.4 °F 70% 30.41 in 10.0 mi WSW 4.6 mph - N/A   Clear
10:41 AM -9.4 °F -20.9 °F -16.6 °F 71% 30.41 in 10.0 mi WSW 4.6 mph - N/A   Clear
11:01 AM -7.6 °F -16.5 °F -14.8 °F 71% 30.41 in 10.0 mi West 3.5 mph - N/A   Clear
11:21 AM -5.8 °F -16.7 °F -13.0 °F 71% 30.41 in 10.0 mi West 4.6 mph - N/A   Clear
11:41 AM -5.8 °F -18.4 °F -14.8 °F 65% 30.41 in 10.0 mi West 5.8 mph - N/A   Clear
12:01 PM -5.8 °F -16.7 °F -14.8 °F 65% 30.41 in 10.0 mi SSW 4.6 mph - N/A   Clear
12:21 PM -4.0 °F -16.3 °F -13.0 °F 65% 30.41 in 10.0 mi SW 5.8 mph - N/A   Clear
12:41 PM -2.2 °F -15.6 °F -13.0 °F 60% 30.40 in 10.0 mi SW 6.9 mph - N/A   Clear
1:01 PM -2.2 °F -14.2 °F -11.2 °F 66% 30.40 in 10.0 mi SSW 5.8 mph - N/A   Clear
1:21 PM -0.4 °F -14.7 °F -11.2 °F 60% 30.40 in 10.0 mi SW 8.1 mph - N/A   Clear
1:41 PM -0.4 °F -14.7 °F -11.2 °F 60% 30.39 in 10.0 mi SW 8.1 mph - N/A   Clear
2:01 PM -0.4 °F -14.7 °F -11.2 °F 60% 30.39 in 10.0 mi SW 8.1 mph - N/A   Clear
2:21 PM -0.4 °F -14.7 °F -11.2 °F 60% 30.39 in 10.0 mi SW 8.1 mph - N/A   Clear
2:41 PM -0.4 °F -14.7 °F -11.2 °F 60% 30.39 in 10.0 mi SW 8.1 mph - N/A   Clear
3:01 PM -0.4 °F -14.7 °F -11.2 °F 60% 30.39 in 10.0 mi SW 8.1 mph - N/A   Clear
3:21 PM -0.4 °F -12.0 °F -11.2 °F 60% 30.39 in 10.0 mi SW 5.8 mph - N/A   Clear
3:41 PM -0.4 °F -13.4 °F -11.2 °F 60% 30.39 in 10.0 mi SW 6.9 mph - N/A   Clear
4:01 PM -0.4 °F -13.4 °F -11.2 °F 60% 30.39 in 10.0 mi SW 6.9 mph - N/A   Clear
4:21 PM -0.4 °F -13.4 °F -11.2 °F 60% 30.39 in 10.0 mi SW 6.9 mph - N/A   Clear
4:41 PM -2.2 °F -16.8 °F -11.2 °F 66% 30.40 in 10.0 mi SW 8.1 mph - N/A   Clear
5:01 PM -2.2 °F -15.6 °F -11.2 °F 66% 30.40 in 10.0 mi WSW 6.9 mph - N/A   Clear
5:21 PM -4.0 °F -12.4 °F -11.2 °F 71% 30.40 in 10.0 mi WSW 3.5 mph - N/A   Clear
5:41 PM -5.8 °F -14.5 °F -13.0 °F 71% 30.39 in 10.0 mi SW 3.5 mph - N/A   Clear
6:01 PM -5.8 °F - -14.8 °F 65% 30.39 in 10.0 mi SSW 2.3 mph - N/A   Clear
6:21 PM -7.6 °F -16.5 °F -14.8 °F 71% 30.39 in 10.0 mi SSW 3.5 mph - N/A   Clear
6:41 PM -7.6 °F -18.8 °F -14.8 °F 71% 30.38 in 10.0 mi SW 4.6 mph - N/A   Clear
7:01 PM -7.6 °F -16.5 °F -14.8 °F 71% 30.38 in 10.0 mi SW 3.5 mph - N/A   Clear
7:21 PM -7.6 °F -16.5 °F -14.8 °F 71% 30.38 in 10.0 mi SW 3.5 mph - N/A   Clear
7:41 PM -7.6 °F -18.8 °F -14.8 °F 71% 30.37 in 10.0 mi WSW 4.6 mph - N/A   Clear
8:01 PM -9.4 °F - -14.8 °F 77% 30.36 in 10.0 mi WSW 2.3 mph - N/A   Clear
8:21 PM -9.4 °F - -16.6 °F 71% 30.37 in 10.0 mi SW 2.3 mph - N/A   Clear
8:41 PM -11.2 °F -23.0 °F -18.4 °F 70% 30.36 in 10.0 mi SW 4.6 mph - N/A   Clear
9:01 PM -11.2 °F -23.0 °F -16.6 °F 77% 30.36 in 10.0 mi SW 4.6 mph - N/A   Clear
9:21 PM -11.2 °F -20.6 °F -16.6 °F 77% 30.35 in 10.0 mi SW 3.5 mph - N/A   Clear
9:41 PM -13.0 °F -25.1 °F -18.4 °F 77% 30.34 in 10.0 mi SSW 4.6 mph - N/A   Clear
10:01 PM -11.2 °F -26.4 °F -18.4 °F 70% 30.34 in 10.0 mi SSW 6.9 mph - N/A   Clear
10:21 PM -13.0 °F -27.0 °F -18.4 °F 77% 30.33 in 10.0 mi SSW 5.8 mph - N/A   Clear
10:41 PM -14.8 °F -27.2 °F -20.2 °F 77% 30.33 in 10.0 mi SSW 4.6 mph - N/A   Clear
11:01 PM -13.0 °F -25.1 °F -18.4 °F 77% 30.32 in 10.0 mi SSW 4.6 mph - N/A   Clear
11:21 PM -14.8 °F -29.1 °F -20.2 °F 77% 30.32 in 10.0 mi SSW 5.8 mph - N/A   Clear
11:41 PM -14.8 °F -29.1 °F -20.2 °F 77% 30.31 in 10.0 mi SSW 5.8 mph - N/A   Clear